timestamp,wind_dir_avg,wind_spd_max_dir,wind_spd_avg,wind_spd_gust,battery_voltage,lat,long
2019-01-05 00:00:00+00:00,174.0,179.0,4.4,4.88,,47.59359,-54.27349
2019-01-05 00:10:00+00:00,175.0,180.0,3.87,4.61,,47.59359,-54.27349
2019-01-05 00:20:00+00:00,147.0,143.0,3.36,4.42,,47.59359,-54.27349
2019-01-05 00:30:00+00:00,167.0,180.0,3.65,4.75,,47.59359,-54.27349
2019-01-05 00:40:00+00:00,158.0,155.0,4.43,5.63,,47.59359,-54.27349
2019-01-05 00:50:00+00:00,165.0,160.0,4.95,5.76,,47.59359,-54.27349
2019-01-05 01:00:00+00:00,171.0,169.0,4.63,5.93,,47.59359,-54.27349
2019-01-05 01:10:00+00:00,178.0,180.0,4.55,5.4,,47.59359,-54.27349
2019-01-05 01:20:00+00:00,171.0,165.0,5.57,6.19,,47.59359,-54.27349
2019-01-05 01:30:00+00:00,172.0,173.0,5.66,6.58,,47.59359,-54.27349
2019-01-05 01:40:00+00:00,185.0,184.0,6.03,6.64,,47.59359,-54.27349
2019-01-05 01:50:00+00:00,184.0,181.0,5.88,6.62,,47.59359,-54.27349
2019-01-05 02:00:00+00:00,178.0,179.0,5.7,6.2,,47.59359,-54.27349
2019-01-05 02:10:00+00:00,179.0,181.0,5.52,6.15,,47.59359,-54.27349
2019-01-05 02:20:00+00:00,184.0,182.0,4.9,5.82,,47.59359,-54.27349
2019-01-05 02:30:00+00:00,189.0,193.0,6.13,7.11,,47.59359,-54.27349
2019-01-05 02:40:00+00:00,185.0,190.0,5.99,6.76,,47.59359,-54.27349
2019-01-05 02:50:00+00:00,191.0,193.0,5.96,6.46,,47.59359,-54.27349
2019-01-05 03:00:00+00:00,187.0,191.0,6.25,6.77,,47.59359,-54.27349
2019-01-05 03:10:00+00:00,194.0,198.0,6.58,7.2,,47.59359,-54.27349
2019-01-05 03:20:00+00:00,189.0,191.0,6.78,7.38,,47.59359,-54.27349
2019-01-05 03:30:00+00:00,189.0,187.0,6.02,7.02,,47.59359,-54.27349
2019-01-05 03:40:00+00:00,188.0,188.0,7.11,7.79,,47.59359,-54.27349
2019-01-05 03:50:00+00:00,198.0,207.0,6.89,7.77,,47.59359,-54.27349
2019-01-05 04:00:00+00:00,194.0,196.0,6.63,7.43,,47.59359,-54.27349
2019-01-05 04:10:00+00:00,193.0,208.0,8.26,9.11,,47.59359,-54.27349
2019-01-05 04:20:00+00:00,202.0,204.0,9.24,9.77,,47.59359,-54.27349
2019-01-05 04:30:00+00:00,208.0,211.0,8.69,10.77,,47.59359,-54.27349
2019-01-05 04:40:00+00:00,217.0,217.0,10.44,11.91,,47.59359,-54.27349
2019-01-05 04:50:00+00:00,210.0,208.0,11.02,12.16,,47.59359,-54.27349
2019-01-05 05:00:00+00:00,213.0,215.0,11.06,13.24,,47.59359,-54.27349
2019-01-05 05:10:00+00:00,213.0,209.0,9.92,11.33,,47.59359,-54.27349
2019-01-05 05:20:00+00:00,216.0,220.0,10.45,11.63,,47.59359,-54.27349
2019-01-05 05:30:00+00:00,216.0,218.0,9.51,10.36,,47.59359,-54.27349
2019-01-05 05:40:00+00:00,209.0,207.0,9.64,10.85,,47.59359,-54.27349
2019-01-05 05:50:00+00:00,211.0,217.0,9.96,11.35,,47.59359,-54.27349
2019-01-05 06:00:00+00:00,215.0,209.0,11.1,12.37,,47.59359,-54.27349
2019-01-05 06:10:00+00:00,207.0,212.0,8.28,9.36,,47.59359,-54.27349
2019-01-05 06:20:00+00:00,211.0,211.0,8.64,9.91,,47.59359,-54.27349
2019-01-05 06:30:00+00:00,219.0,221.0,10.74,11.63,,47.59359,-54.27349
2019-01-05 06:40:00+00:00,211.0,211.0,10.31,11.44,,47.59359,-54.27349
2019-01-05 06:50:00+00:00,217.0,217.0,9.55,10.4,,47.59359,-54.27349
2019-01-05 07:00:00+00:00,209.0,207.0,9.77,11.31,,47.59359,-54.27349
2019-01-05 07:10:00+00:00,209.0,207.0,9.42,10.79,,47.59359,-54.27349
2019-01-05 07:20:00+00:00,215.0,224.0,9.07,10.75,,47.59359,-54.27349
2019-01-05 07:30:00+00:00,209.0,207.0,9.72,10.72,,47.59359,-54.27349
2019-01-05 07:40:00+00:00,209.0,215.0,9.26,11.43,,47.59359,-54.27349
2019-01-05 07:50:00+00:00,204.0,208.0,8.52,10.06,,47.59359,-54.27349
2019-01-05 08:00:00+00:00,215.0,218.0,11.42,12.94,,47.59359,-54.27349
2019-01-05 08:10:00+00:00,215.0,216.0,11.71,13.01,,47.59359,-54.27349
2019-01-05 08:20:00+00:00,213.0,216.0,11.47,13.24,,47.59359,-54.27349
2019-01-05 08:30:00+00:00,218.0,224.0,11.42,13.36,,47.59359,-54.27349
2019-01-05 08:40:00+00:00,221.0,231.0,11.25,14.29,,47.59359,-54.27349
2019-01-05 08:50:00+00:00,216.0,219.0,11.61,13.2,,47.59359,-54.27349
2019-01-05 09:00:00+00:00,228.0,236.0,11.65,16.03,,47.59359,-54.27349
2019-01-05 09:10:00+00:00,218.0,219.0,11.45,13.76,,47.59359,-54.27349
2019-01-05 09:20:00+00:00,214.0,219.0,12.41,14.56,,47.59359,-54.27349
2019-01-05 09:30:00+00:00,215.0,216.0,12.06,13.2,,47.59359,-54.27349
2019-01-05 09:40:00+00:00,212.0,214.0,10.83,12.78,,47.59359,-54.27349
2019-01-05 09:50:00+00:00,229.0,236.0,13.65,18.11,,47.59359,-54.27349
2019-01-05 10:00:00+00:00,233.0,240.0,13.34,16.89,,47.59359,-54.27349
2019-01-05 10:10:00+00:00,232.0,235.0,15.35,17.71,,47.59359,-54.27349
2019-01-05 10:20:00+00:00,232.0,231.0,14.15,18.43,,47.59359,-54.27349
2019-01-05 10:30:00+00:00,226.0,233.0,12.91,15.59,,47.59359,-54.27349
2019-01-05 10:40:00+00:00,221.0,227.0,13.1,14.56,,47.59359,-54.27349
2019-01-05 10:50:00+00:00,220.0,225.0,14.46,19.57,,47.59359,-54.27349
2019-01-05 11:00:00+00:00,214.0,222.0,12.71,15.37,,47.59359,-54.27349
2019-01-05 11:10:00+00:00,208.0,210.0,11.82,12.96,,47.59359,-54.27349
2019-01-05 11:20:00+00:00,206.0,204.0,11.55,13.03,,47.59359,-54.27349
2019-01-05 11:30:00+00:00,204.0,203.0,11.89,12.63,,47.59359,-54.27349
2019-01-05 11:40:00+00:00,200.0,197.0,12.91,15.19,,47.59359,-54.27349
2019-01-05 11:50:00+00:00,204.0,207.0,12.07,13.36,,47.59359,-54.27349
2019-01-05 12:00:00+00:00,205.0,212.0,12.21,14.1,,47.59359,-54.27349
2019-01-05 12:10:00+00:00,206.0,209.0,12.52,13.9,,47.59359,-54.27349
2019-01-05 12:20:00+00:00,206.0,204.0,12.17,13.2,,47.59359,-54.27349
2019-01-05 12:30:00+00:00,206.0,205.0,12.53,14.03,,47.59359,-54.27349
2019-01-05 12:40:00+00:00,205.0,209.0,12.55,14.08,,47.59359,-54.27349
2019-01-05 12:50:00+00:00,208.0,213.0,12.34,13.99,,47.59359,-54.27349
2019-01-05 13:00:00+00:00,208.0,213.0,12.72,14.07,,47.59359,-54.27349
2019-01-05 13:10:00+00:00,215.0,222.0,13.18,15.02,,47.59359,-54.27349
2019-01-05 13:20:00+00:00,212.0,211.0,13.35,14.9,,47.59359,-54.27349
2019-01-05 13:30:00+00:00,210.0,223.0,13.31,16.4,,47.59359,-54.27349
2019-01-05 13:40:00+00:00,208.0,212.0,15.14,16.63,,47.59359,-54.27349
2019-01-05 13:50:00+00:00,209.0,215.0,13.3,15.06,,47.59359,-54.27349
2019-01-05 14:00:00+00:00,216.0,218.0,11.1,12.24,,47.59359,-54.27349
2019-01-05 14:10:00+00:00,212.0,214.0,11.12,13.62,,47.59359,-54.27349
2019-01-05 14:20:00+00:00,211.0,206.0,10.94,12.63,,47.59359,-54.27349
2019-01-05 14:30:00+00:00,210.0,213.0,11.11,12.93,,47.59359,-54.27349
2019-01-05 14:40:00+00:00,213.0,215.0,12.41,14.24,,47.59359,-54.27349
2019-01-05 14:50:00+00:00,214.0,217.0,11.43,13.71,,47.59359,-54.27349
2019-01-05 15:00:00+00:00,214.0,219.0,11.58,13.01,,47.59359,-54.27349
2019-01-05 15:10:00+00:00,217.0,220.0,12.84,14.61,,47.59359,-54.27349
2019-01-05 15:20:00+00:00,221.0,219.0,11.64,13.79,,47.59359,-54.27349
2019-01-05 15:30:00+00:00,222.0,220.0,12.15,13.9,,47.59359,-54.27349
2019-01-05 15:40:00+00:00,224.0,228.0,12.52,13.85,,47.59359,-54.27349
2019-01-05 15:50:00+00:00,227.0,225.0,11.59,13.0,,47.59359,-54.27349
2019-01-05 16:00:00+00:00,223.0,224.0,11.96,13.02,,47.59359,-54.27349
2019-01-05 16:10:00+00:00,226.0,225.0,11.37,12.99,,47.59359,-54.27349
2019-01-05 16:20:00+00:00,226.0,221.0,10.08,11.96,,47.59359,-54.27349
2019-01-05 16:30:00+00:00,228.0,229.0,10.15,11.17,,47.59359,-54.27349
2019-01-05 16:40:00+00:00,227.0,227.0,10.71,12.05,,47.59359,-54.27349
2019-01-05 16:50:00+00:00,226.0,229.0,9.52,11.08,,47.59359,-54.27349
2019-01-05 17:00:00+00:00,226.0,229.0,8.56,9.93,,47.59359,-54.27349
2019-01-05 17:10:00+00:00,227.0,229.0,9.25,11.18,,47.59359,-54.27349
2019-01-05 17:20:00+00:00,219.0,219.0,9.52,10.27,,47.59359,-54.27349
2019-01-05 17:30:00+00:00,227.0,222.0,7.77,9.18,,47.59359,-54.27349
2019-01-05 17:40:00+00:00,224.0,228.0,8.58,9.7,,47.59359,-54.27349
2019-01-05 17:50:00+00:00,226.0,217.0,7.57,8.53,,47.59359,-54.27349
2019-01-05 18:00:00+00:00,226.0,224.0,7.88,8.83,,47.59359,-54.27349
2019-01-05 18:10:00+00:00,227.0,225.0,7.14,8.26,,47.59359,-54.27349
2019-01-05 18:20:00+00:00,231.0,231.0,6.57,7.42,,47.59359,-54.27349
2019-01-05 18:30:00+00:00,229.0,232.0,6.36,7.53,,47.59359,-54.27349
2019-01-05 18:40:00+00:00,222.0,223.0,6.34,7.59,,47.59359,-54.27349
2019-01-05 18:50:00+00:00,225.0,222.0,6.61,7.38,,47.59359,-54.27349
2019-01-05 19:00:00+00:00,229.0,232.0,5.98,6.61,,47.59359,-54.27349
2019-01-05 19:10:00+00:00,229.0,229.0,6.33,7.11,,47.59359,-54.27349
2019-01-05 19:20:00+00:00,224.0,224.0,5.95,6.5,,47.59359,-54.27349
2019-01-05 19:30:00+00:00,224.0,227.0,5.63,6.47,,47.59359,-54.27349
2019-01-05 19:40:00+00:00,221.0,224.0,6.33,6.76,,47.59359,-54.27349
2019-01-05 19:50:00+00:00,223.0,225.0,5.72,6.27,,47.59359,-54.27349
2019-01-05 20:00:00+00:00,221.0,218.0,5.85,6.32,,47.59359,-54.27349
2019-01-05 20:10:00+00:00,221.0,223.0,5.73,6.37,,47.59359,-54.27349
2019-01-05 20:20:00+00:00,218.0,220.0,5.51,6.11,,47.59359,-54.27349
2019-01-05 20:30:00+00:00,214.0,212.0,5.48,5.88,,47.59359,-54.27349
2019-01-05 20:40:00+00:00,219.0,228.0,5.51,5.96,,47.59359,-54.27349
2019-01-05 20:50:00+00:00,223.0,228.0,5.31,6.29,,47.59359,-54.27349
2019-01-05 21:00:00+00:00,222.0,220.0,5.12,5.52,,47.59359,-54.27349
2019-01-05 21:10:00+00:00,223.0,229.0,4.44,5.15,,47.59359,-54.27349
2019-01-05 21:20:00+00:00,230.0,231.0,4.48,4.99,,47.59359,-54.27349
2019-01-05 21:30:00+00:00,230.0,239.0,3.95,4.25,,47.59359,-54.27349
2019-01-05 21:40:00+00:00,227.0,225.0,4.22,4.82,,47.59359,-54.27349
2019-01-05 21:50:00+00:00,227.0,224.0,3.94,4.82,,47.59359,-54.27349
2019-01-05 22:00:00+00:00,214.0,212.0,4.19,4.58,,47.59359,-54.27349
2019-01-05 22:10:00+00:00,217.0,216.0,4.2,4.52,,47.59359,-54.27349
2019-01-05 22:20:00+00:00,214.0,214.0,4.03,4.35,,47.59359,-54.27349
2019-01-05 22:30:00+00:00,220.0,220.0,3.95,4.3,,47.59359,-54.27349
2019-01-05 22:40:00+00:00,182.0,183.0,2.98,3.47,,47.59359,-54.27349
2019-01-05 22:50:00+00:00,186.0,186.0,5.04,5.36,,47.59359,-54.27349
2019-01-05 23:00:00+00:00,194.0,196.0,4.75,5.15,,47.59359,-54.27349
2019-01-05 23:10:00+00:00,188.0,188.0,4.07,4.52,,47.59359,-54.27349
2019-01-05 23:20:00+00:00,184.0,185.0,3.12,3.33,,47.59359,-54.27349
2019-01-05 23:30:00+00:00,177.0,178.0,2.69,3.02,,47.59359,-54.27349
2019-01-05 23:40:00+00:00,180.0,180.0,2.1,2.37,,47.59359,-54.27349
2019-01-05 23:50:00+00:00,163.0,163.0,2.11,2.21,,47.59359,-54.27349
